Flag for Germany Weather past 2 weeks in Forchheim, Bavaria, Germany

Now
47 °F

Overcast.


Feels Like: 47 °F
Forecast: 49 / 65 °F
Wind: No wind

Location: Bamberg

Current Time: Aug 22, 2014 at 6:03:35 AM

Latest Report: Aug 22, 2014 at 5:00 AM


Visibility: 10 mi

Pressure: 30.03 "Hg

Humidity: 99%

Dew point: 47 °F

Location of ForchheimLocation

Historic Weather in Forchheim — Graph

°F

Forchheim temperature yesterday

Maximum temperature yesterday: 68 °F (at 4:00 PM)
Minimum temperature yesterday: 45 °F (at 4:00 AM)
Average temperature yesterday: 55 °F

Past Weeks' High & Low Weather Summary

 TemperatureHumidityPressure
High87 °F (Aug 10, 3:00 PM)100% (Aug 7, 6:00 AM)30.12 "Hg (Aug 7, 6:00 AM)
Low44 °F (Aug 20, 7:00 AM)33% (Aug 8, 3:00 PM)29.66 "Hg (Aug 13, 5:00 PM)
Average61 °F79%29.93 "Hg
* Reported Aug 7 4:00 AM — Aug 22 4:00 AM, Forchheim, Weather by CustomWeather, © 2014

Note: Actual official high and low records may vary slightly from our data, if they occured in-between our weather recording intervals... More about our weather records

Advertising

Forchheim weather history for previous 24 hours

 ConditionsComfort  
Time TempWeatherWind HumidityBarometerVisibility
4:00 AM
Aug 22
47 °FOvercast.1 mph99%30.03 "Hg11 mi
3:00 AM46 °FPassing clouds.1 mph99%30.04 "Hg9 mi
2:00 AM47 °FPassing clouds.1 mph98%30.05 "Hg17 mi
1:00 AM48 °FPassing clouds.1 mph98%30.06 "Hg25 mi
12:00 AM48 °FOvercast.1 mph98%30.05 "Hg22 mi
11:00 PM
Aug 21
47 °FPassing clouds.1 mph97%30.06 "Hg22 mi
10:00 PM49 °FClear.1 mph95%30.04 "Hg28 mi
9:00 PM52 °FClear.1 mph91%30.02 "Hg37 mi
8:00 PM60 °FSunny.2 mph62%30.01 "Hg43 mi
7:00 PM65 °FScattered clouds.2 mph44%30.00 "Hg43 mi
6:00 PM65 °FPassing clouds.3 mph48%30.00 "Hg43 mi
5:00 PM66 °FScattered clouds.2 mph45%30.00 "Hg43 mi
4:00 PM68 °FSunny.2 mph42%30.00 "Hg40 mi
3:00 PM65 °FOvercast.2 mph53%30.03 "Hg43 mi
2:00 PM65 °FScattered clouds.2 mph51%30.03 "Hg43 mi
1:00 PM65 °FScattered clouds.2 mph55%30.04 "Hg43 mi
12:00 PM63 °FScattered clouds.2 mph61%30.05 "Hg40 mi
11:00 AM62 °FSunny.2 mph69%30.06 "Hg34 mi
10:00 AM59 °FPassing clouds.2 mph74%30.06 "Hg28 mi
9:00 AM55 °FPartly sunny.1 mph86%30.06 "Hg22 mi
8:00 AM49 °FOvercast.No wind99%30.06 "Hg17 mi
7:00 AM46 °FPartly sunny.1 mph99%30.06 "Hg12 mi
6:00 AM47 °FOvercast.1 mph100%30.05 "Hg16 mi
Weather by CustomWeather, © 2014

See weather overviewHow to use our weather pages